Theta_e
283 283 282 282 282 282 282 283 283 283 284 284 284 284 284 285 285 285 286 286 286 287
282 283 283 283 283 283 283 283 283 283 282 282 283 283 283 282 282 283 284 284 285 286
280 280 280 280 280 280 280 281 281 280 281 281 281 281 281 280 281 282 282 282 283 284
280 280 279 279 279 279 279 280 280 279 279 279 279 279 278 278 279 279 280 281 280 280
279 279 279 279 279 279 278 279 279 279 279 279 279 278 277 276 277 277 278 278 279 280
279 278 278 278 279 278 278 278 278 278 278 278 278 278 278 277 277 277 277 277 278 279
278 278 278 278 278 277 277 277 277 277 277 278 277 277 277 277 277 276 277 278 278 278
278 278 277 277 277 277 277 276 276 275 275 275 275 276 276 277 277 277 277 277 278 278
277 277 276 276 275 274 273 272 272 272 272 272 273 276 277 276 274 275 275 275 276 277
274 273 273 272 271 271 270 270 270 270 269 269 269 273 275 275 273 272 272 272 273 273
271 269 270 269 269 268 268 268 267 267 267 267 268 272 273 273 271 270 270 270 271 271
268 266 267 265 266 266 266 265 264 266 265 264 265 269 271 271 269 269 269 270 270 270
267 262 262 264 264 264 263 264 264 264 264 263 262 267 270 270 269 267 268 269 270 272
265 262 262 261 262 261 261 262 261 261 262 262 263 264 269 271 269 268 267 268 269 270
Wind_Speed
6 5 5 5 4 4 4 4 5 6 6 6 6 7 7 5 6 8 6 6 4 4
6 6 6 6 5 4 4 5 6 6 7 7 6 5 5 4 6 6 5 5 5 4
6 6 6 5 6 6 5 6 7 7 8 8 7 7 7 6 6 6 5 5 7 5
5 5 4 4 4 5 5 5 6 6 6 6 6 6 6 6 8 9 10 9 8 9
5 6 7 6 6 6 7 7 7 8 9 10 10 7 6 6 6 7 11 12 12 11
5 6 6 6 6 6 6 7 8 8 9 11 12 12 12 11 11 12 11 11 12 13
2 3 5 5 6 7 7 8 9 9 10 11 11 11 12 13 13 12 12 12 13 13
2 3 4 4 5 5 5 6 7 11 11 11 11 9 13 14 14 15 16 16 15 15
1 1 2 3 4 6 7 8 9 9 11 11 9 20 24 22 16 17 18 17 16 15
3 2 3 5 6 7 9 9 10 10 11 12 12 22 24 26 15 16 16 18 17 16
5 4 6 7 8 9 9 10 11 11 12 13 11 24 26 27 17 15 16 16 16 17
4 3 6 7 9 9 10 10 10 11 12 13 13 24 26 24 15 14 15 15 15 15
1 2 3 7 8 7 8 11 10 12 12 15 15 22 25 22 12 14 12 14 15 21
2 2 5 6 6 8 8 10 11 12 12 13 14 16 25 26 14 12 12 12 11 11
Wind_Direction
57 68 60 49 31 32 11 20 12 10 15 10 5 9 11 7 347 345 345 337 318 294
54 53 50 40 37 21 8 4 6 6 2 358 360 356 355 356 338 333 320 317 317 310
58 47 44 34 22 2 353 355 353 350 355 350 338 341 347 344 332 321 321 315 311 300
64 50 42 31 5 353 345 348 345 336 328 323 319 319 325 323 317 324 316 314 302 294
42 28 19 2 354 355 349 347 344 338 336 334 328 324 308 299 298 290 299 299 297 293
16 6 349 338 334 338 335 330 327 325 321 320 320 321 320 312 308 300 292 290 284 285
321 318 316 320 326 327 327 321 317 314 309 307 306 303 300 299 297 289 286 286 280 283
284 285 287 300 314 320 315 314 315 313 308 306 305 302 304 302 298 292 288 282 280 279
229 285 341 355 334 322 320 317 312 308 307 306 302 307 305 300 294 291 289 288 287 288
143 95 13 342 334 330 322 318 314 310 309 306 304 304 304 304 297 294 291 290 292 291
44 15 346 343 333 323 319 316 313 310 305 299 302 307 307 305 298 292 291 289 289 288
45 351 340 324 316 314 311 309 307 301 304 300 298 302 303 306 298 290 290 288 284 283
21 346 308 300 302 298 294 297 300 296 296 294 291 295 302 305 293 289 288 284 281 278
19 305 273 277 283 288 289 291 290 289 289 285 282 286 299 301 296 289 285 279 279 274